DB0RV-13 Weather Reports


Display with metric or nautical units.
time (UTC)temp
F
wind
direction
speed
MPH
gust
MPH
rain 1hr
in
rain 24hr
in
rain mn
in
humidity
%
barometer
mb
20200927012509 43 189 10.0 0.0 0.00 0.00 0.00 80 1002.1
20200927012005 43 194 6.0 0.0 0.00 0.00 0.00 80 1002.1
20200927011520 42 198 7.0 0.0 0.00 0.00 0.00 81 1002.2
20200927011004 42 195 9.0 0.0 0.00 0.00 0.00 80 1002.1
20200927010504 42 198 8.0 0.0 0.00 0.00 0.00 80 1002.2
20200927010017 42 181 4.0 0.0 0.00 0.00 0.00 81 1002.3
20200927005509 42 193 10.0 0.0 0.00 0.00 0.00 81 1002.1
20200927005004 42 206 12.0 0.0 0.00 0.00 0.00 81 1002.2
20200927004509 42 167 7.0 0.0 0.00 0.00 0.00 81 1002.2
20200927004001 42 189 6.0 0.0 0.00 0.00 0.00 81 1002.2
20200927003505 42 187 6.0 0.0 0.00 0.00 0.00 80 1002.3
20200927003020 42 198 11.0 0.0 0.00 0.00 0.00 81 1002.4
20200927002511 42 195 7.0 0.0 0.00 0.00 0.00 81 1002.3
20200927002011 42 191 8.0 0.0 0.00 0.00 0.00 81 1002.4
20200927001522 42 165 7.0 0.0 0.00 0.00 0.00 81 1002.3
20200927001010 42 175 2.0 0.0 0.00 0.00 0.00 81 1002.4
20200927000503 43 173 6.0 0.0 0.00 0.00 0.00 80 1002.3
20200927000009 43 197 14.0 0.0 0.00 0.00 0.00 81 1002.4
20200926235508 42 205 9.0 0.0 0.00 0.00 0.00 81 1002.5
20200926235005 42 174 6.0 0.0 0.00 0.00 0.00 81 1002.5
20200926234511 42 203 8.0 0.0 0.00 0.00 0.00 81 1002.6
20200926234007 43 198 7.0 0.0 0.00 0.00 0.00 81 1002.4
20200926233510 43 178 3.0 0.0 0.00 0.00 0.00 81 1002.6
20200926233009 43 181 4.0 0.0 0.00 0.00 0.00 82 1002.6
20200926232505 42 183 6.0 0.0 0.00 0.00 0.00 82 1002.5
20200926232005 43 191 14.0 0.0 0.00 0.00 0.00 81 1002.7
20200926231512 43 204 13.0 0.0 0.00 0.00 0.00 81 1002.5
20200926231005 43 185 7.0 0.0 0.00 0.00 0.00 82 1002.6
20200926230507 42 177 4.0 0.0 0.00 0.00 0.00 83 1002.7
20200926230007 42 182 8.0 0.0 0.00 0.00 0.00 83 1002.7
20200926225505 42 197 7.0 0.0 0.00 0.00 0.00 83 1002.7
20200926225007 42 180 10.0 0.0 0.00 0.00 0.00 83 1002.7
20200926224518 42 181 7.0 0.0 0.00 0.00 0.00 83 1002.7
20200926224004 42 200 9.0 0.0 0.00 0.00 0.00 83 1002.5
20200926223522 42 198 2.0 0.0 0.00 0.00 0.00 83 1002.4
20200926223022 42 181 7.0 0.0 0.00 0.00 0.00 83 1002.5
20200926222505 42 173 5.0 0.0 0.00 0.00 0.00 83 1002.5
20200926222004 42 202 8.0 0.0 0.00 0.00 0.00 82 1002.3
20200926221522 42 193 11.0 0.0 0.00 0.00 0.00 82 1002.5
20200926221008 42 199 9.0 0.0 0.00 0.00 0.00 82 1002.3
20200926220501 42 192 7.0 0.0 0.00 0.00 0.00 82 1002.3
20200926220025 42 196 11.0 0.0 0.00 0.00 0.00 83 1002.2
20200926215504 42 196 11.0 0.0 0.00 0.00 0.00 83 1002.3
20200926215004 42 186 12.0 0.0 0.00 0.00 0.00 83 1002.3
20200926214511 42 220 15.0 0.0 0.00 0.00 0.00 83 1002.1
20200926214007 42 209 10.0 0.0 0.00 0.00 0.00 84 1002.2
20200926213514 42 196 7.0 0.0 0.00 0.00 0.00 84 1002.2
20200926213020 42 198 7.0 0.0 0.00 0.00 0.00 84 1002.3
20200926212505 42 206 7.0 0.0 0.00 0.00 0.00 84 1002.4
20200926212001 42 208 13.0 0.0 0.00 0.00 0.00 85 1002.4
20200926211507 42 165 7.0 0.0 0.00 0.00 0.00 84 1002.4
20200926211007 42 198 7.0 0.0 0.00 0.00 0.00 85 1002.3
20200926210504 42 210 10.0 0.0 0.00 0.00 0.00 84 1002.4
20200926210008 42 193 9.0 0.0 0.00 0.00 0.00 84 1002.2
20200926205504 42 194 14.0 0.0 0.00 0.00 0.00 85 1002.3
20200926205010 42 172 9.0 0.0 0.00 0.00 0.00 85 1002.2
20200926204507 42 197 7.0 0.0 0.00 0.00 0.00 85 1002.2
20200926204014 42 204 10.0 0.0 0.00 0.00 0.00 85 1002.3
20200926203506 42 204 11.0 0.0 0.00 0.00 0.00 85 1002.2
20200926203012 42 201 10.0 0.0 0.00 0.00 0.00 85 1002.1
20200926202513 42 203 12.0 0.0 0.00 0.00 0.00 86 1002.2
20200926202007 41 196 8.0 0.0 0.00 0.00 0.00 86 1002.2
20200926201525 41 201 10.0 0.0 0.00 0.00 0.00 86 1002.3
20200926201002 41 190 8.0 0.0 0.00 0.00 0.00 86 1002.1
20200926200504 41 183 9.0 0.0 0.00 0.00 0.00 86 1002.0
20200926200007 41 207 14.0 0.0 0.00 0.00 0.00 87 1002.2
20200926195513 41 206 6.0 0.0 0.00 0.00 0.00 86 1002.3
20200926195001 41 187 8.0 0.0 0.00 0.00 0.00 86 1002.3
20200926194512 41 180 10.0 0.0 0.00 0.00 0.00 87 1002.3
20200926194006 41 188 6.0 0.0 0.00 0.00 0.00 87 1002.6
20200926193504 41 193 9.0 0.0 0.00 0.00 0.00 87 1002.5
20200926193007 41 206 7.0 0.0 0.00 0.00 0.00 88 1002.6
20200926192511 41 196 7.0 0.0 0.00 0.00 0.00 88 1002.6
20200926192004 41 219 12.0 0.0 0.00 0.00 0.00 89 1002.6
20200926191508 41 203 7.0 0.0 0.00 0.00 0.00 89 1002.7
20200926191007 41 190 10.0 0.0 0.00 0.00 0.00 89 1002.6
20200926190505 41 175 8.0 0.0 0.00 0.00 0.00 89 1002.6
20200926190019 41 205 11.0 0.0 0.00 0.00 0.00 89 1002.7
20200926185508 41 180 7.0 0.0 0.00 0.00 0.00 89 1002.7
20200926185001 41 176 5.0 0.0 0.00 0.00 0.00 89 1002.7
20200926184512 41 193 6.0 0.0 0.00 0.00 0.00 89 1002.7
20200926184008 41 191 7.0 0.0 0.00 0.00 0.00 88 1002.7
20200926183511 41 207 10.0 0.0 0.00 0.00 0.00 89 1002.6
20200926183007 41 199 6.0 0.0 0.00 0.00 0.00 89 1002.6
20200926182506 41 183 8.0 0.0 0.00 0.00 0.00 88 1002.6
20200926182005 41 209 12.0 0.0 0.00 0.00 0.00 88 1002.6
20200926181506 41 219 11.0 0.0 0.00 0.00 0.00 88 1002.6
20200926181004 41 208 12.0 0.0 0.00 0.00 0.00 88 1002.5
20200926180503 41 219 10.0 0.0 0.00 0.00 0.00 88 1002.5
20200926180005 41 196 7.0 0.0 0.00 0.00 0.00 87 1002.7
20200926175506 41 199 8.0 0.0 0.00 0.00 0.00 87 1002.7
20200926175008 41 197 12.0 0.0 0.00 0.00 0.00 86 1002.5
20200926174507 41 188 5.0 0.0 0.00 0.00 0.00 86 1002.6
20200926174006 42 178 8.0 0.0 0.00 0.00 0.00 86 1002.7
20200926173504 42 171 12.0 0.0 0.00 0.00 0.00 86 1002.6
20200926173010 42 170 10.0 0.0 0.00 0.00 0.00 86 1002.7
20200926172507 42 196 10.0 0.0 0.00 0.00 0.00 85 1002.5
20200926172012 42 227 9.0 0.0 0.00 0.00 0.00 84 1002.5
20200926171513 42 219 1.0 0.0 0.00 0.00 0.00 84 1002.6
20200926171001 42 210 10.0 0.0 0.00 0.00 0.00 84 1002.5
20200926170505 43 225 9.0 0.0 0.00 0.00 0.00 83 1002.5
20200926170021 43 200 7.0 0.0 0.00 0.00 0.00 83 1002.4
20200926165509 42 193 7.0 0.0 0.00 0.00 0.00 84 1002.4
20200926165008 43 182 8.0 0.0 0.00 0.00 0.00 83 1002.3
20200926164512 43 187 8.0 0.0 0.00 0.00 0.00 84 1002.3
20200926164006 43 207 8.0 0.0 0.00 0.00 0.00 84 1002.3
20200926163509 42 169 6.0 0.0 0.00 0.00 0.00 85 1002.2
20200926163017 43 208 7.0 0.0 0.00 0.00 0.00 84 1002.1
20200926162508 43 178 6.0 0.0 0.00 0.00 0.00 83 1002.2
20200926162004 43 181 10.0 0.0 0.00 0.00 0.00 83 1002.1
20200926161512 43 196 6.0 0.0 0.00 0.00 0.00 83 1002.1
20200926161007 43 169 9.0 0.0 0.00 0.00 0.00 83 1002.1
20200926160510 43 166 6.0 0.0 0.00 0.00 0.00 83 1002.1
20200926160001 43 205 8.0 0.0 0.00 0.00 0.00 83 1001.9
20200926155509 43 210 12.0 0.0 0.00 0.00 0.00 83 1001.9
20200926155006 43 165 4.0 0.0 0.00 0.00 0.00 84 1001.9
20200926154504 43 182 4.0 0.0 0.00 0.00 0.00 84 1001.9
20200926154005 43 177 5.0 0.0 0.00 0.00 0.00 84 1001.7
20200926153509 43 175 8.0 0.0 0.00 0.00 0.00 84 1001.7
20200926153018 43 193 7.0 0.0 0.00 0.00 0.00 83 1001.7
20200926152515 43 193 9.0 0.0 0.00 0.00 0.00 83 1001.7
20200926152004 43 155 4.0 0.0 0.00 0.00 0.00 82 1001.8
20200926151516 43 169 6.0 0.0 0.00 0.00 0.00 82 1001.7
20200926151013 43 217 7.0 0.0 0.00 0.00 0.00 81 1001.8
20200926150511 43 217 8.0 0.0 0.00 0.00 0.00 81 1001.7
20200926150010 43 195 6.0 0.0 0.00 0.00 0.00 80 1001.7
20200926145511 43 222 18.0 0.0 0.00 0.00 0.00 79 1001.8
20200926145006 43 202 13.0 0.0 0.00 0.00 0.00 79 1001.8
20200926144516 43 175 5.0 0.0 0.00 0.00 0.00 79 1001.7
20200926144008 43 197 5.0 0.0 0.00 0.00 0.00 79 1001.7
20200926143503 43 199 9.0 0.0 0.00 0.00 0.00 80 1001.6
20200926143006 43 187 11.0 0.0 0.00 0.00 0.00 80 1001.5
20200926142505 43 208 13.0 0.0 0.00 0.00 0.00 81 1001.5
20200926142010 43 202 4.0 0.0 0.00 0.00 0.00 82 1001.5
20200926141521 43 194 5.0 0.0 0.00 0.00 0.00 81 1001.5
20200926141006 43 181 6.0 0.0 0.00 0.00 0.00 81 1001.5
20200926140508 43 199 4.0 0.0 0.00 0.00 0.00 81 1001.5
20200926140016 43 243 12.0 0.0 0.00 0.00 0.00 81 1001.5
20200926135507 43 192 9.0 0.0 0.00 0.00 0.00 81 1001.5
20200926135008 42 192 13.0 0.0 0.00 0.00 0.00 81 1001.5
20200926134508 42 212 12.0 0.0 0.00 0.00 0.00 82 1001.6
20200926134006 42 211 9.0 0.0 0.00 0.00 0.00 82 1001.6
20200926133504 42 203 12.0 0.0 0.00 0.00 0.00 81 1001.8
20200926133010 42 192 13.0 0.0 0.00 0.00 0.00 80 1001.5
20200926132507 42 214 17.0 0.0 0.00 0.00 0.00 83 1001.6
20200926132008 42 203 9.0 0.0 0.00 0.00 0.00 83 1001.6
20200926131512 42 235 17.0 0.0 0.00 0.00 0.00 84 1001.7
20200926131005 42 221 10.0 0.0 0.00 0.00 0.00 84 1001.8
20200926130504 42 195 10.0 0.0 0.00 0.00 0.00 83 1001.6
20200926130023 42 247 11.0 0.0 0.00 0.00 0.00 83 1001.8
20200926125508 42 200 7.0 0.0 0.00 0.00 0.00 82 1001.6
20200926125005 42 219 13.0 0.0 0.00 0.00 0.00 82 1002.0
20200926124515 42 197 13.0 0.0 0.00 0.00 0.00 81 1001.7
20200926124010 42 202 16.0 0.0 0.00 0.00 0.00 80 1001.7
20200926123504 42 197 14.0 0.0 0.00 0.00 0.00 80 1001.7
20200926123011 42 205 10.0 0.0 0.00 0.00 0.00 82 1001.8
20200926122509 42 218 11.0 0.0 0.00 0.00 0.00 81 1001.5
20200926122006 42 208 12.0 0.0 0.00 0.00 0.00 81 1001.7
20200926121505 42 241 20.0 0.0 0.00 0.00 0.00 82 1001.7
20200926121010 42 198 10.0 0.0 0.00 0.00 0.00 82 1001.5
20200926120509 42 226 5.0 0.0 0.00 0.00 0.00 80 1001.6
20200926120008 43 199 11.0 0.0 0.00 0.00 0.00 80 1001.7
20200926115505 42 210 16.0 0.0 0.00 0.00 0.00 80 1001.5
20200926115005 43 204 11.0 0.0 0.00 0.00 0.00 80 1001.4
20200926114502 42 205 13.0 0.0 0.00 0.00 0.00 81 1001.4
20200926114012 43 188 9.0 0.0 0.00 0.00 0.00 80 1001.5
20200926113511 43 217 18.0 0.0 0.00 0.00 0.00 80 1001.4
20200926113017 43 207 14.0 0.0 0.00 0.00 0.00 79 1001.7
20200926112506 43 218 7.0 0.0 0.00 0.00 0.00 79 1001.8
20200926112008 43 225 10.0 0.0 0.00 0.00 0.00 79 1001.4
20200926111517 43 223 16.0 0.0 0.00 0.00 0.00 78 1001.5
20200926111006 43 205 14.0 0.0 0.00 0.00 0.00 78 1001.6
20200926110503 43 219 17.0 0.0 0.00 0.00 0.00 80 1001.5
20200926110011 43 192 9.0 0.0 0.00 0.00 0.00 81 1001.5
20200926105506 43 188 9.0 0.0 0.00 0.00 0.00 81 1001.6
20200926105006 42 203 12.0 0.0 0.00 0.00 0.00 82 1001.4
20200926104508 42 187 8.0 0.0 0.00 0.00 0.00 82 1001.5
20200926104004 42 181 4.0 0.0 0.00 0.00 0.00 82 1001.8
20200926103507 42 177 9.0 0.0 0.00 0.00 0.00 81 1001.7
20200926103009 42 193 9.0 0.0 0.00 0.00 0.00 82 1001.8
20200926102510 42 176 13.0 0.0 0.00 0.00 0.00 82 1001.6
20200926102006 42 184 5.0 0.0 0.00 0.00 0.00 82 1001.7
20200926101509 42 190 9.0 0.0 0.00 0.00 0.00 82 1001.7
20200926101014 42 230 17.0 0.0 0.00 0.00 0.00 82 1001.7
20200926100510 42 204 10.0 0.0 0.00 0.00 0.00 81 1001.7
20200926100010 42 193 10.0 0.0 0.00 0.00 0.00 80 1001.6
20200926095508 42 218 12.0 0.0 0.00 0.00 0.00 79 1001.7
20200926095006 42 202 8.0 0.0 0.00 0.00 0.00 79 1001.8
20200926094512 42 208 7.0 0.0 0.00 0.00 0.00 78 1001.7
20200926094010 43 172 9.0 0.0 0.00 0.00 0.00 77 1001.8
20200926093505 43 189 10.0 0.0 0.00 0.00 0.00 77 1001.7
20200926093019 43 206 7.0 0.0 0.00 0.00 0.00 76 1001.5
20200926092506 43 183 9.0 0.0 0.00 0.00 0.00 76 1001.7
20200926092009 43 193 10.0 0.0 0.00 0.00 0.00 77 1001.6
20200926091510 43 212 16.0 0.0 0.00 0.00 0.00 77 1001.4
20200926091006 42 210 13.0 0.0 0.00 0.00 0.00 77 1001.4
20200926090509 42 190 4.0 0.0 0.00 0.00 0.00 77 1001.5
20200926090005 42 204 13.0 0.0 0.00 0.00 0.00 77 1001.5
20200926085505 43 198 3.0 0.0 0.00 0.00 0.00 77 1001.4
20200926085010 43 197 8.0 0.0 0.00 0.00 0.00 77 1001.4
20200926084510 43 233 17.0 0.0 0.00 0.00 0.00 77 1001.6
20200926084010 43 180 10.0 0.0 0.00 0.00 0.00 77 1001.5
20200926083506 43 222 17.0 0.0 0.00 0.00 0.00 76 1001.6
20200926083007 43 196 18.0 0.0 0.00 0.00 0.00 77 1001.5
20200926082504 43 188 9.0 0.0 0.00 0.00 0.00 77 1001.5
20200926082005 43 206 8.0 0.0 0.00 0.00 0.00 77 1001.6
20200926081512 43 194 12.0 0.0 0.00 0.00 0.00 78 1001.5
20200926081004 43 180 6.0 0.0 0.00 0.00 0.00 78 1001.4
20200926080508 43 196 8.0 0.0 0.00 0.00 0.00 78 1001.3
20200926080012 43 181 8.0 0.0 0.00 0.00 0.00 78 1001.4
20200926075510 43 208 9.0 0.0 0.00 0.00 0.00 78 1001.5
20200926075011 43 175 17.0 0.0 0.00 0.00 0.00 78 1001.4
20200926074508 43 206 16.0 0.0 0.00 0.00 0.00 78 1001.5
20200926074005 43 210 9.0 0.0 0.00 0.00 0.00 78 1001.5
20200926073504 43 183 10.0 0.0 0.00 0.00 0.00 78 1001.4
20200926073004 43 198 8.0 0.0 0.00 0.00 0.00 78 1001.2
20200926072509 43 209 19.0 0.0 0.00 0.00 0.00 78 1001.2
20200926072006 43 195 10.0 0.0 0.00 0.00 0.00 79 1001.4
20200926071516 43 239 15.0 0.0 0.00 0.00 0.00 80 1001.4
20200926071006 43 193 8.0 0.0 0.00 0.00 0.00 81 1001.5
20200926070514 43 185 6.0 0.0 0.00 0.00 0.00 82 1001.5
20200926070022 43 211 12.0 0.0 0.00 0.00 0.00 83 1001.5
20200926065507 43 203 6.0 0.0 0.00 0.00 0.00 83 1001.6
20200926065012 43 201 7.0 0.0 0.00 0.00 0.00 84 1001.7
20200926064510 43 191 7.0 0.0 0.00 0.00 0.00 83 1001.8
20200926064004 43 194 6.0 0.0 0.00 0.00 0.00 83 1001.7
20200926063504 43 194 6.0 0.0 0.00 0.00 0.00 83 1001.8
20200926063004 43 216 9.0 0.0 0.00 0.00 0.00 83 1001.7
20200926062515 43 200 9.0 0.0 0.00 0.00 0.00 83 1001.9
20200926062021 43 237 12.0 0.0 0.00 0.00 0.00 84 1001.7
20200926061504 43 218 6.0 0.0 0.00 0.00 0.00 85 1001.9
20200926061007 43 240 5.0 0.0 0.00 0.00 0.00 84 1001.9
20200926060507 43 186 6.0 0.0 0.00 0.00 0.00 84 1001.8
20200926060019 43 196 2.0 0.0 0.00 0.00 0.00 84 1001.6
20200926055513 43 208 14.0 0.0 0.00 0.00 0.00 83 1001.6
20200926055007 43 195 7.0 0.0 0.00 0.00 0.00 84 1001.6
20200926054513 43 192 2.0 0.0 0.00 0.00 0.00 84 1001.6
20200926054006 43 238 5.0 0.0 0.00 0.00 0.00 84 1001.6
20200926053501 43 169 3.0 0.0 0.00 0.00 0.00 84 1001.8
20200926053014 43 203 12.0 0.0 0.00 0.00 0.00 85 1001.8
20200926052504 43 203 3.0 0.0 0.00 0.00 0.00 85 1002.0
20200926052006 43 221 3.0 0.0 0.00 0.00 0.00 85 1001.9
20200926051520 43 241 7.0 0.0 0.00 0.00 0.00 85 1001.8
20200926051014 43 206 7.0 0.0 0.00 0.00 0.00 85 1001.9
20200926050506 43 233 10.0 0.0 0.00 0.00 0.00 86 1001.9
20200926050019 43 257 5.0 0.0 0.00 0.00 0.00 86 1001.7
20200926045510 43 218 2.0 0.0 0.00 0.00 0.00 86 1001.9
20200926045010 43 208 7.0 0.0 0.00 0.00 0.00 86 1001.8
20200926044503 43 209 3.0 0.0 0.00 0.00 0.00 86 1001.9
20200926044006 43 215 8.0 0.0 0.00 0.00 0.00 86 1001.8
20200926043506 43 191 5.0 0.0 0.00 0.00 0.00 86 1001.9
20200926043007 43 220 5.0 0.0 0.00 0.00 0.00 86 1001.8
20200926042504 43 190 6.0 0.0 0.00 0.00 0.00 86 1001.8
20200926042004 43 237 6.0 0.0 0.00 0.00 0.00 86 1001.8
20200926041514 43 225 4.0 0.0 0.00 0.00 0.00 87 1001.8
20200926041006 43 224 6.0 0.0 0.00 0.00 0.00 87 1001.7
20200926040511 43 224 15.0 0.0 0.00 0.00 0.00 87 1001.8
20200926040009 43 228 5.0 0.0 0.00 0.00 0.00 87 1001.8
20200926035508 43 213 3.0 0.0 0.00 0.00 0.00 87 1001.8
20200926035001 43 251 8.0 0.0 0.00 0.00 0.00 87 1001.8
20200926034510 43 221 4.0 0.0 0.00 0.00 0.00 87 1001.8
20200926034005 43 217 8.0 0.0 0.00 0.00 0.00 87 1001.8
20200926033503 43 193 5.0 0.0 0.00 0.00 0.00 87 1001.6
20200926033007 43 209 6.0 0.0 0.00 0.00 0.00 87 1001.7
20200926032506 43 237 5.0 0.0 0.00 0.00 0.00 87 1001.8
20200926032005 43 184 6.0 0.0 0.00 0.00 0.00 87 1001.7
20200926031508 43 206 5.0 0.0 0.00 0.00 0.00 87 1001.8
20200926031008 43 203 6.0 0.0 0.00 0.00 0.00 87 1001.6
20200926030505 43 230 6.0 0.0 0.00 0.00 0.00 87 1001.7
20200926030005 43 201 4.0 0.0 0.00 0.00 0.00 87 1001.8
20200926025508 43 193 3.0 0.0 0.00 0.00 0.00 87 1001.7
20200926025003 43 195 6.0 0.0 0.00 0.00 0.00 87 1001.6
20200926024503 43 218 6.0 0.0 0.00 0.00 0.00 88 1001.6
20200926024005 43 188 5.0 0.0 0.00 0.00 0.00 88 1001.8
20200926023504 43 208 2.0 0.0 0.00 0.00 0.00 88 1001.7
20200926023011 43 206 4.0 0.0 0.00 0.00 0.00 88 1001.6
20200926022504 43 185 4.0 0.0 0.00 0.00 0.00 88 1001.7
20200926022006 43 205 4.0 0.0 0.00 0.00 0.00 89 1001.6
20200926021504 43 183 5.0 0.0 0.00 0.00 0.00 89 1001.7
20200926021005 43 188 3.0 0.0 0.00 0.00 0.00 89 1001.7
20200926020505 43 178 3.0 0.0 0.00 0.00 0.00 89 1001.5
20200926020004 43 181 4.0 0.0 0.00 0.00 0.00 89 1001.6
20200926015510 43 189 3.0 0.0 0.00 0.00 0.00 89 1001.5
20200926015005 43 194 5.0 0.0 0.00 0.00 0.00 89 1001.6
20200926014504 43 199 6.0 0.0 0.00 0.00 0.00 89 1001.6
20200926014011 43 187 4.0 0.0 0.00 0.00 0.00 89 1001.7
20200926013504 43 192 3.0 0.0 0.00 0.00 0.00 89 1001.7
20200926013006 43 189 2.0 0.0 0.00 0.00 0.00 89 1001.6